(205072) = 1999 RE129

Discovered at Socorro on 1999-09-09 by LINEAR.

Orbit

Orbit type: Main Belt

Note: WebGL enabled browser required.

epoch2024-03-31.0
epoch JD2460400.5
perihelion date2025-02-12.95199
perihelion JD2460719.45199
argument of perihelion (°)171.74615
ascending node (°)171.46062
inclination (°)2.50332
eccentricity0.1893623
perihelion distance (AU)1.9141138
Tisserand w.r.t. Jupiter3.5
ΔV w.r.t. Earth (km/sec)8.6
semimajor axis (AU)2.3612445
mean anomaly (°)273.36015
mean daily motion (°/day)0.27163920
aphelion distance (AU)2.808
period (years)3.63
P-vector [x]0.95737398
P-vector [y]-0.26744758
P-vector [z]-0.10911851
Q-vector [x]0.28877845
Q-vector [y]0.89469174
Q-vector [z]0.34078393
absolute magnitude16.44
phase slope0.15
uncertainty0
referenceMPEC 2024-C181
observations used921
oppositions15
arc length (days)8646
first opposition used1999
last opposition used2023
residual rms (arc-secs)0.72
perturbers coarse indicatorM-v
perturbers precise indicator003Ek
first observation date used1999-08-07.0
last observation date used2023-04-09.0
computer nameMPCLINUX
JD of orbit computation2456909.257997
perihelion JD uncertainty (days)3.9728E-05
argument of perihelion uncertainty (°)8.2984E-05
ascending node uncertainty (°)8.2289E-05
inclination uncertainty (°)4.9114E-06
eccentricity uncertainty 4.2655E-08
perihelion distance uncertainty (AU)1.0238E-07
Minimum Orbit Intersection Distances (in AU)
for orbit epoch: 2460400.5, reference: E2024-FA5
Mercury1.5252
Venus1.18913
Earth0.90618
Mars0.53331
Jupiter2.58394
Saturn6.44071
Uranus15.6316
Neptune27.5429

Observations

964 total observations over interval: 1999 08 07.35907 – 2023 04 09.527410
These data are available for download (format description).

Date (UT) J2000 RA J2000 Dec Magn Location Ref
1999 08 07.35907 22 20 54.26 -07 45 24.9 18.0 R 699 – Lowell Observatory-LONEOS MPS 59619
1999 08 07.38455 22 20 53.34 -07 45 31.9   699 – Lowell Observatory-LONEOS MPS 59619
1999 08 07.41002 22 20 52.36 -07 45 39.3   699 – Lowell Observatory-LONEOS MPS 59619
1999 08 22.24410 22 10 25.88 -09 11 56.0 17.6 R 703 – Catalina Sky Survey MPS 15173
1999 08 22.25465 22 10 25.34 -09 12 00.0 17.7 R 703 – Catalina Sky Survey MPS 15173
1999 08 22.26514 22 10 24.78 -09 12 04.1 17.6 R 703 – Catalina Sky Survey MPS 15173
1999 08 22.27565 22 10 24.29 -09 12 07.6 17.7 R 703 – Catalina Sky Survey MPS 15173
1999 09 04.21553 22 00 32.56 -10 36 51.6 17.9 R 699 – Lowell Observatory-LONEOS MPS 13638
1999 09 04.24105 22 00 31.44 -10 37 01.1   699 – Lowell Observatory-LONEOS MPS 13638
1999 09 04.26659 22 00 30.25 -10 37 10.9   699 – Lowell Observatory-LONEOS MPS 13638
1999 09 07.28309 21 58 28.43 -10 55 43.4 18.4   704 – Lincoln Laboratory ETS, New Mexico MPS 13638
1999 09 07.29563 21 58 27.88 -10 55 48.0 18.4   704 – Lincoln Laboratory ETS, New Mexico MPS 13638
1999 09 07.30788 21 58 27.42 -10 55 52.2 18.8   704 – Lincoln Laboratory ETS, New Mexico MPS 13638
1999 09 07.31995 21 58 26.90 -10 55 57.2 18.7   704 – Lincoln Laboratory ETS, New Mexico MPS 13638
1999 09 07.33206 21 58 26.39 -10 55 59.8 19.0   704 – Lincoln Laboratory ETS, New Mexico MPS 13638
1999 09 09.27040 21 57 14.18 -11 07 24.1 18.8   704 – Lincoln Laboratory ETS, New Mexico MPS 6327
1999 09 09.28442 21 57 13.60 -11 07 28.5 18.8   704 – Lincoln Laboratory ETS, New Mexico MPS 6327
1999 09 09.29865 21 57 13.13 -11 07 33.9 19.3   704 – Lincoln Laboratory ETS, New Mexico MPS 6327
1999 09 09.31309 21 57 12.50 -11 07 38.6 18.7   704 – Lincoln Laboratory ETS, New Mexico MPS 6327
1999 09 09.32711 21 57 11.97 -11 07 43.7 19.3   704 – Lincoln Laboratory ETS, New Mexico MPS 6327
1999 09 13.22574 21 55 03.20 -11 29 07.1 19.1   704 – Lincoln Laboratory ETS, New Mexico MPS 6327
1999 09 13.23718 21 55 02.81 -11 29 10.6 19.1   704 – Lincoln Laboratory ETS, New Mexico MPS 6327
1999 09 13.24856 21 55 02.42 -11 29 13.7 19.2   704 – Lincoln Laboratory ETS, New Mexico MPS 6327
1999 09 13.26074 21 55 02.03 -11 29 18.1 19.1   704 – Lincoln Laboratory ETS, New Mexico MPS 6327
1999 09 13.27229 21 55 01.66 -11 29 21.3 18.3   704 – Lincoln Laboratory ETS, New Mexico MPS 6327
1999 10 15.09342 21 55 30.73 -12 38 48.5 19.2   704 – Lincoln Laboratory ETS, New Mexico MPS 15173
1999 10 15.10970 21 55 31.26 -12 38 47.3 19.7   704 – Lincoln Laboratory ETS, New Mexico MPS 15173
1999 10 15.12660 21 55 31.74 -12 38 46.3 20.0   704 – Lincoln Laboratory ETS, New Mexico MPS 15173
1999 10 15.15882 21 55 32.71 -12 38 43.4 19.8   704 – Lincoln Laboratory ETS, New Mexico MPS 15173
2003 10 18.44626 04 01 33.29 +17 06 43.7 18.9 R 699 – Lowell Observatory-LONEOS MPS 89233
2003 10 18.45954 04 01 32.85 +17 06 40.6   699 – Lowell Observatory-LONEOS MPS 89233
2003 10 18.47284 04 01 32.36 +17 06 37.2   699 – Lowell Observatory-LONEOS MPS 89233
2003 10 18.48620 04 01 31.94 +17 06 34.2   699 – Lowell Observatory-LONEOS MPS 89233
2003 10 24.35795 03 58 08.06 +16 45 31.2 19.0   704 – Lincoln Laboratory ETS, New Mexico MPS 89233
2003 10 24.39425 03 58 06.48 +16 45 22.3 19.7   704 – Lincoln Laboratory ETS, New Mexico MPS 89233
2003 10 24.40627 03 58 06.01 +16 45 19.8 19.7   704 – Lincoln Laboratory ETS, New Mexico MPS 89233
2003 11 01.33404 03 51 49.91 +16 13 11.6 19.0   704 – Lincoln Laboratory ETS, New Mexico MPS 89233
2003 11 01.34621 03 51 49.22 +16 13 08.0 19.1   704 – Lincoln Laboratory ETS, New Mexico MPS 89233
2003 11 01.35841 03 51 48.53 +16 13 06.2 19.0   704 – Lincoln Laboratory ETS, New Mexico MPS 89233
2003 11 01.37091 03 51 47.81 +16 13 01.9 19.2   704 – Lincoln Laboratory ETS, New Mexico MPS 89233
2003 11 15.47738 03 37 42.09 +15 11 44.8 18.6   644 – Palomar Mountain/NEAT MPS 90859
2003 11 15.49787 03 37 40.77 +15 11 39.4 18.8   644 – Palomar Mountain/NEAT MPS 90859
2003 11 15.52061 03 37 39.32 +15 11 33.6 18.8   644 – Palomar Mountain/NEAT MPS 90859
2003 11 16.24392 03 36 54.09 +15 08 29.9 18.7 V 703 – Catalina Sky Survey MPS 90859
2003 11 16.25523 03 36 53.37 +15 08 27.8 18.2 V 703 – Catalina Sky Survey MPS 90859
2003 11 16.26662 03 36 52.61 +15 08 23.8 18.7 V 703 – Catalina Sky Survey MPS 90859
2003 11 16.27802 03 36 51.87 +15 08 21.8 18.9 V 703 – Catalina Sky Survey MPS 90859
2003 11 18.26784 03 34 46.21 +15 00 02.1 18.9 V 691 – Steward Observatory, Kitt Peak-Spacewatch MPS 90859
2003 11 18.29622 03 34 44.33 +14 59 55.1 18.9 V 691 – Steward Observatory, Kitt Peak-Spacewatch MPS 90859
2003 11 18.32486 03 34 42.46 +14 59 48.0 18.9 V 691 – Steward Observatory, Kitt Peak-Spacewatch MPS 90859
2003 11 22.25197 03 30 38.23 +14 44 06.1 18.7   704 – Lincoln Laboratory ETS, New Mexico MPS 91656
2003 11 22.26455 03 30 37.38 +14 44 03.1 19.1   704 – Lincoln Laboratory ETS, New Mexico MPS 91656
2003 11 22.27698 03 30 36.62 +14 44 00.6 19.5   704 – Lincoln Laboratory ETS, New Mexico MPS 91656
2003 11 24.24319 03 28 37.71 +14 36 33.1 18.6 V 703 – Catalina Sky Survey MPS 91656
2003 11 24.25673 03 28 36.91 +14 36 30.8 18.7 V 703 – Catalina Sky Survey MPS 91656
2003 11 24.27025 03 28 36.01 +14 36 27.0 18.6 V 703 – Catalina Sky Survey MPS 91656
2003 11 24.28389 03 28 35.22 +14 36 24.3 19.3 V 703 – Catalina Sky Survey MPS 91656
2003 11 24.29269 03 28 34.61 +14 36 22.3 18.7 R 699 – Lowell Observatory-LONEOS MPS 91656
2003 11 24.31027 03 28 33.59 +14 36 18.2   699 – Lowell Observatory-LONEOS MPS 91656
2003 11 24.32603 03 28 32.52 +14 36 15.1   699 – Lowell Observatory-LONEOS MPS 91656
2003 11 24.34186 03 28 31.54 +14 36 11.3   699 – Lowell Observatory-LONEOS MPS 91656
2003 12 01.21019 03 22 06.03 +14 13 25.3 19.4   704 – Lincoln Laboratory ETS, New Mexico MPS 92576
2003 12 01.22321 03 22 05.38 +14 13 22.0 19.3   704 – Lincoln Laboratory ETS, New Mexico MPS 92576
2003 12 01.23631 03 22 04.62 +14 13 20.5 19.9   704 – Lincoln Laboratory ETS, New Mexico MPS 92576
2003 12 01.24919 03 22 03.88 +14 13 18.7 19.7   704 – Lincoln Laboratory ETS, New Mexico MPS 92576
2003 12 01.26207 03 22 03.16 +14 13 16.0 19.7   704 – Lincoln Laboratory ETS, New Mexico MPS 92576
2003 12 21.21578 03 10 18.45 +13 43 29.1 20.0   704 – Lincoln Laboratory ETS, New Mexico MPS 94431
2003 12 21.24168 03 10 18.00 +13 43 30.1 20.4   704 – Lincoln Laboratory ETS, New Mexico MPS 94431
2003 12 21.25528 03 10 17.72 +13 43 30.7 20.6   704 – Lincoln Laboratory ETS, New Mexico MPS 94431
2003 12 22.09104 03 10 04.90 +13 43 35.5 20.1 V 691 – Steward Observatory, Kitt Peak-Spacewatch MPS 94431
2003 12 22.11975 03 10 04.40 +13 43 35.7 20.1 V 691 – Steward Observatory, Kitt Peak-Spacewatch MPS 94431
2003 12 22.14929 03 10 03.90 +13 43 35.8 20.3 V 691 – Steward Observatory, Kitt Peak-Spacewatch MPS 94431
2005 04 02.26647 10 34 02.90 +08 50 15.6 20.0 R G96 – Mt. Lemmon Survey MPS 130135
2005 04 02.27293 10 34 02.71 +08 50 17.1 19.8 R G96 – Mt. Lemmon Survey MPS 130135
2005 04 02.27944 10 34 02.50 +08 50 18.7 19.9 R G96 – Mt. Lemmon Survey MPS 130135
2005 04 02.28596 10 34 02.26 +08 50 20.3 19.8 R G96 – Mt. Lemmon Survey MPS 130135
2005 04 04.15006 10 33 02.70 +08 57 43.5 21.0 V 691 – Steward Observatory, Kitt Peak-Spacewatch MPS 130573
2005 04 04.16602 10 33 02.21 +08 57 47.2 20.6 V 691 – Steward Observatory, Kitt Peak-Spacewatch MPS 130573
2005 04 04.18176 10 33 01.69 +08 57 51.3 20.9 V 691 – Steward Observatory, Kitt Peak-Spacewatch MPS 130573
2005 04 12.14504 10 29 42.60 +09 23 32.4 21.3 V 691 – Steward Observatory, Kitt Peak-Spacewatch MPS 131495
2005 04 12.16055 10 29 42.30 +09 23 34.7 21.0 V 691 – Steward Observatory, Kitt Peak-Spacewatch MPS 131495
2005 04 12.17601 10 29 41.98 +09 23 37.3 21.2 V 691 – Steward Observatory, Kitt Peak-Spacewatch MPS 131495
2007 11 06.45344 07 38 17.08 +18 19 02.4 20.2 V G96 – Mt. Lemmon Survey MPS 224558
2007 11 06.45848 07 38 17.23 +18 19 01.5 20.2 V G96 – Mt. Lemmon Survey MPS 224558
2007 11 06.46352 07 38 17.26 +18 19 01.4 20.5 V G96 – Mt. Lemmon Survey MPS 224558
2007 11 06.46858 07 38 17.44 +18 19 00.3 20.5 V G96 – Mt. Lemmon Survey MPS 224558
2007 12 06.37787 07 34 44.25 +17 58 14.3 20.4 V G96 – Mt. Lemmon Survey MPS 229668
